Time,TemperatureF,DewpointF,PressureIn,WindDirection,WindDirectionDegrees,WindSpeedMPH,WindSpeedGustMPH,Humidity,HourlyPrecipIn,Conditions,Clouds,dailyrainin,SoftwareType,DateUTC
2013-05-11 00:01:00,58.0,54.0,-100.00,NNE,16,1.0,2.0,86,-99.99,,,-99.99,,2013-05-11 07:01:00,
2013-05-11 00:11:00,57.0,53.0,-100.00,NE,51,1.0,3.0,86,-99.99,,,-99.99,,2013-05-11 07:11:00,
2013-05-11 00:21:00,57.0,53.0,-100.00,NNW,336,0.0,1.0,87,-99.99,,,-99.99,,2013-05-11 07:21:00,
2013-05-11 00:31:00,57.0,53.0,-100.00,North,356,1.0,1.0,88,-99.99,,,-99.99,,2013-05-11 07:31:00,
2013-05-11 00:41:00,57.0,53.0,-100.00,North,10,1.0,1.0,88,-99.99,,,-99.99,,2013-05-11 07:41:00,
2013-05-11 00:52:00,57.0,53.0,-100.00,NNE,27,1.0,2.0,88,-99.99,,,-99.99,,2013-05-11 07:52:00,
2013-05-11 01:01:00,56.0,53.0,-100.00,NE,52,1.0,2.0,89,-99.99,,,-99.99,,2013-05-11 08:01:00,
2013-05-11 01:12:00,56.0,52.0,-100.00,NW,325,1.0,2.0,88,-99.99,,,-99.99,,2013-05-11 08:12:00,
2013-05-11 01:21:00,56.0,53.0,-100.00,NNE,23,2.0,3.0,90,-99.99,,,-99.99,,2013-05-11 08:21:00,
2013-05-11 01:31:00,56.0,53.0,-100.00,North,6,1.0,3.0,90,-99.99,,,-99.99,,2013-05-11 08:31:00,
2013-05-11 01:42:00,55.0,52.0,-100.00,NE,37,0.0,1.0,90,-99.99,,,-99.99,,2013-05-11 08:42:00,
2013-05-11 01:51:00,56.0,53.0,-100.00,North,5,1.0,2.0,91,-99.99,,,-99.99,,2013-05-11 08:51:00,
2013-05-11 02:01:00,56.0,53.0,-100.00,NNW,341,1.0,2.0,90,-99.99,,,-99.99,,2013-05-11 09:01:00,
2013-05-11 02:11:00,55.0,52.0,-100.00,West,273,0.0,1.0,89,-99.99,,,-99.99,,2013-05-11 09:11:00,
2013-05-11 02:21:00,55.0,52.0,-100.00,West,272,0.0,1.0,89,-99.99,,,-99.99,,2013-05-11 09:21:00,
2013-05-11 02:32:00,54.0,51.0,-100.00,West,276,0.0,1.0,89,-99.99,,,-99.99,,2013-05-11 09:32:00,
2013-05-11 02:42:00,54.0,51.0,-100.00,WNW,300,0.0,1.0,90,-99.99,,,-99.99,,2013-05-11 09:42:00,
2013-05-11 02:52:00,54.0,51.0,-100.00,WNW,302,0.0,1.0,91,-99.99,,,-99.99,,2013-05-11 09:52:00,
2013-05-11 03:03:00,54.0,51.0,-100.00,North,360,0.0,1.0,91,-99.99,,,-99.99,,2013-05-11 10:03:00,
2013-05-11 03:12:00,54.0,52.0,-100.00,NE,56,1.0,2.0,92,-99.99,,,-99.99,,2013-05-11 10:12:00,
2013-05-11 03:22:00,53.0,50.0,-100.00,ESE,106,0.0,1.0,91,-99.99,,,-99.99,,2013-05-11 10:22:00,
2013-05-11 03:32:00,53.0,50.0,-100.00,WSW,250,0.0,1.0,91,-99.99,,,-99.99,,2013-05-11 10:32:00,
2013-05-11 03:42:00,53.0,51.0,-100.00,East,84,0.0,1.0,92,-99.99,,,-99.99,,2013-05-11 10:42:00,
2013-05-11 03:52:00,53.0,51.0,-100.00,NNE,23,0.0,1.0,92,-99.99,,,-99.99,,2013-05-11 10:52:00,
2013-05-11 04:02:00,53.0,51.0,-100.00,NNW,333,0.0,1.0,93,-99.99,,,-99.99,,2013-05-11 11:02:00,
2013-05-11 04:11:00,53.0,51.0,-100.00,NNW,347,0.0,1.0,93,-99.99,,,-99.99,,2013-05-11 11:11:00,
2013-05-11 04:21:00,52.0,50.0,-100.00,NE,35,1.0,2.0,93,-99.99,,,-99.99,,2013-05-11 11:21:00,
2013-05-11 04:31:00,52.0,50.0,-100.00,ENE,66,1.0,2.0,93,-99.99,,,-99.99,,2013-05-11 11:31:00,
2013-05-11 04:42:00,52.0,50.0,-100.00,West,271,0.0,1.0,93,-99.99,,,-99.99,,2013-05-11 11:42:00,
2013-05-11 04:51:00,52.0,50.0,-100.00,NE,42,1.0,2.0,93,-99.99,,,-99.99,,2013-05-11 11:51:00,
2013-05-11 05:01:00,52.0,50.0,-100.00,NE,42,1.0,2.0,93,-99.99,,,-99.99,,2013-05-11 12:01:00,
2013-05-11 05:11:00,52.0,50.0,-100.00,NW,309,0.0,1.0,94,-99.99,,,-99.99,,2013-05-11 12:11:00,
2013-05-11 05:21:00,52.0,50.0,-100.00,NNE,16,1.0,2.0,94,-99.99,,,-99.99,,2013-05-11 12:21:00,
2013-05-11 05:32:00,51.0,49.0,-100.00,North,9,0.0,1.0,94,-99.99,,,-99.99,,2013-05-11 12:32:00,
2013-05-11 05:42:00,52.0,50.0,-100.00,NNE,31,1.0,2.0,94,-99.99,,,-99.99,,2013-05-11 12:42:00,
2013-05-11 05:51:00,52.0,50.0,-100.00,NE,54,1.0,3.0,94,-99.99,,,-99.99,,2013-05-11 12:51:00,
2013-05-11 06:01:00,52.0,50.0,-100.00,WNW,303,0.0,1.0,94,-99.99,,,-99.99,,2013-05-11 13:01:00,
2013-05-11 06:11:00,52.0,50.0,-100.00,NW,317,0.0,1.0,94,-99.99,,,-99.99,,2013-05-11 13:11:00,
2013-05-11 06:21:00,53.0,51.0,-100.00,NNW,333,1.0,1.0,94,-99.99,,,-99.99,,2013-05-11 13:21:00,
2013-05-11 06:31:00,53.0,52.0,-100.00,NE,53,1.0,2.0,95,-99.99,,,-99.99,,2013-05-11 13:31:00,
2013-05-11 06:41:00,53.0,51.0,-100.00,NE,43,1.0,1.0,94,-99.99,,,-99.99,,2013-05-11 13:41:00,
2013-05-11 06:52:00,52.0,50.0,-100.00,NNW,330,1.0,2.0,93,-99.99,,,-99.99,,2013-05-11 13:52:00,
2013-05-11 07:02:00,53.0,51.0,-100.00,NNE,27,0.0,1.0,94,-99.99,,,-99.99,,2013-05-11 14:02:00,
2013-05-11 07:11:00,54.0,53.0,-100.00,North,350,0.0,1.0,95,-99.99,,,-99.99,,2013-05-11 14:11:00,
2013-05-11 07:21:00,54.0,53.0,-100.00,NW,322,1.0,2.0,95,-99.99,,,-99.99,,2013-05-11 14:21:00,
2013-05-11 07:32:00,54.0,53.0,-100.00,North,7,1.0,2.0,95,-99.99,,,-99.99,,2013-05-11 14:32:00,
2013-05-11 07:41:00,55.0,54.0,-100.00,NE,56,1.0,1.0,96,-99.99,,,-99.99,,2013-05-11 14:41:00,
2013-05-11 07:51:00,56.0,55.0,-100.00,East,83,1.0,3.0,96,-99.99,,,-99.99,,2013-05-11 14:51:00,
2013-05-11 08:01:00,56.0,55.0,-100.00,East,83,1.0,3.0,96,-99.99,,,-99.99,,2013-05-11 15:01:00,
2013-05-11 08:11:00,56.0,55.0,-100.00,South,178,0.0,2.0,96,-99.99,,,-99.99,,2013-05-11 15:11:00,
2013-05-11 08:21:00,57.0,56.0,-100.00,West,259,1.0,2.0,96,-99.99,,,-99.99,,2013-05-11 15:21:00,
2013-05-11 08:32:00,57.0,56.0,-100.00,SW,224,0.0,1.0,96,-99.99,,,-99.99,,2013-05-11 15:32:00,
2013-05-11 08:42:00,57.0,56.0,-100.00,SW,224,0.0,1.0,96,-99.99,,,-99.99,,2013-05-11 15:42:00,
2013-05-11 08:53:00,58.0,57.0,-100.00,SE,126,1.0,4.0,96,-99.99,,,-99.99,,2013-05-11 15:53:00,
2013-05-11 09:02:00,58.0,57.0,-100.00,SE,126,1.0,4.0,96,-99.99,,,-99.99,,2013-05-11 16:02:00,
2013-05-11 09:12:00,58.0,57.0,-100.00,SSE,149,1.0,3.0,96,-99.99,,,-99.99,,2013-05-11 16:12:00,
2013-05-11 09:22:00,58.0,57.0,-100.00,WNW,287,1.0,4.0,95,-99.99,,,-99.99,,2013-05-11 16:22:00,
2013-05-11 09:33:00,59.0,57.0,-100.00,WSW,255,1.0,4.0,94,-99.99,,,-99.99,,2013-05-11 16:33:00,
2013-05-11 09:42:00,60.0,58.0,-100.00,SW,224,1.0,4.0,92,-99.99,,,-99.99,,2013-05-11 16:42:00,
2013-05-11 09:52:00,61.0,57.0,-100.00,SE,125,2.0,4.0,88,-99.99,,,-99.99,,2013-05-11 16:52:00,
2013-05-11 10:02:00,61.0,57.0,-100.00,SE,125,2.0,4.0,88,-99.99,,,-99.99,,2013-05-11 17:02:00,
2013-05-11 10:12:00,63.0,57.0,-100.00,WSW,256,1.0,4.0,81,-99.99,,,-99.99,,2013-05-11 17:12:00,
2013-05-11 10:22:00,65.0,58.0,-100.00,SW,219,2.0,5.0,77,-99.99,,,-99.99,,2013-05-11 17:22:00,
2013-05-11 10:31:00,65.0,58.0,-100.00,SW,219,2.0,5.0,77,-99.99,,,-99.99,,2013-05-11 17:31:00,
2013-05-11 10:41:00,68.0,58.0,-100.00,WSW,246,2.0,7.0,70,-99.99,,,-99.99,,2013-05-11 17:41:00,
2013-05-11 10:52:00,69.0,57.0,-100.00,South,171,1.0,5.0,66,-99.99,,,-99.99,,2013-05-11 17:52:00,
2013-05-11 11:01:00,69.0,57.0,-100.00,South,171,1.0,5.0,66,-99.99,,,-99.99,,2013-05-11 18:01:00,
2013-05-11 11:11:00,72.0,57.0,-100.00,SSE,167,1.0,4.0,60,-99.99,,,-99.99,,2013-05-11 18:11:00,
2013-05-11 11:21:00,74.0,58.0,-100.00,South,178,1.0,3.0,57,-99.99,,,-99.99,,2013-05-11 18:21:00,
2013-05-11 11:32:00,75.0,57.0,-100.00,SE,124,2.0,6.0,54,-99.99,,,-99.99,,2013-05-11 18:32:00,
2013-05-11 11:41:00,76.0,58.0,-100.00,South,173,2.0,5.0,53,-99.99,,,-99.99,,2013-05-11 18:41:00,
2013-05-11 11:51:00,77.0,57.0,-100.00,SSW,195,2.0,5.0,50,-99.99,,,-99.99,,2013-05-11 18:51:00,
2013-05-11 12:02:00,77.0,57.0,-100.00,SSW,195,2.0,5.0,50,-99.99,,,-99.99,,2013-05-11 19:02:00,
2013-05-11 12:11:00,80.0,57.0,-100.00,SSW,199,3.0,7.0,46,-99.99,,,-99.99,,2013-05-11 19:11:00,
2013-05-11 12:21:00,81.0,56.0,-100.00,South,173,2.0,5.0,43,-99.99,,,-99.99,,2013-05-11 19:21:00,
2013-05-11 12:32:00,83.0,56.0,-100.00,SSW,206,2.0,6.0,40,-99.99,,,-99.99,,2013-05-11 19:32:00,
2013-05-11 12:41:00,83.0,55.0,-100.00,SSW,207,2.0,5.0,39,-99.99,,,-99.99,,2013-05-11 19:41:00,
2013-05-11 12:52:00,84.0,57.0,-100.00,SW,223,3.0,10.0,40,-99.99,,,-99.99,,2013-05-11 19:52:00,
2013-05-11 13:01:00,83.0,56.0,-100.00,WSW,241,4.0,10.0,40,-99.99,,,-99.99,,2013-05-11 20:01:00,
2013-05-11 13:11:00,83.0,56.0,-100.00,SW,233,4.0,8.0,40,-99.99,,,-99.99,,2013-05-11 20:11:00,
2013-05-11 13:22:00,84.0,56.0,-100.00,SW,228,3.0,7.0,39,-99.99,,,-99.99,,2013-05-11 20:22:00,
2013-05-11 13:32:00,85.0,57.0,-100.00,SW,226,4.0,8.0,38,-99.99,,,-99.99,,2013-05-11 20:32:00,
2013-05-11 13:42:00,85.0,56.0,-100.00,SSW,204,3.0,7.0,37,-99.99,,,-99.99,,2013-05-11 20:42:00,
2013-05-11 13:52:00,86.0,55.0,-100.00,SW,228,4.0,9.0,35,-99.99,,,-99.99,,2013-05-11 20:52:00,
2013-05-11 14:01:00,87.0,56.0,-100.00,SW,225,4.0,9.0,35,-99.99,,,-99.99,,2013-05-11 21:01:00,
2013-05-11 14:11:00,87.0,56.0,-100.00,WSW,243,5.0,9.0,35,-99.99,,,-99.99,,2013-05-11 21:11:00,
2013-05-11 14:21:00,87.0,56.0,-100.00,SW,217,4.0,8.0,35,-99.99,,,-99.99,,2013-05-11 21:21:00,
2013-05-11 14:33:00,88.0,54.0,-100.00,WSW,254,5.0,8.0,32,-99.99,,,-99.99,,2013-05-11 21:33:00,
2013-05-11 14:43:00,89.0,55.0,-100.00,WSW,237,4.0,10.0,32,-99.99,,,-99.99,,2013-05-11 21:43:00,
2013-05-11 14:52:00,88.0,55.0,-100.00,WSW,243,5.0,8.0,33,-99.99,,,-99.99,,2013-05-11 21:52:00,
2013-05-11 15:02:00,88.0,55.0,-100.00,WSW,243,5.0,8.0,33,-99.99,,,-99.99,,2013-05-11 22:02:00,
2013-05-11 15:12:00,86.0,57.0,-100.00,WSW,237,6.0,12.0,37,-99.99,,,-99.99,,2013-05-11 22:12:00,
2013-05-11 15:22:00,86.0,57.0,-100.00,SW,224,4.0,9.0,37,-99.99,,,-99.99,,2013-05-11 22:22:00,
2013-05-11 15:33:00,85.0,56.0,-100.00,SW,220,5.0,10.0,37,-99.99,,,-99.99,,2013-05-11 22:33:00,
2013-05-11 15:42:00,84.0,56.0,-100.00,WSW,247,7.0,13.0,38,-99.99,,,-99.99,,2013-05-11 22:42:00,
2013-05-11 15:52:00,85.0,56.0,-100.00,SW,233,5.0,10.0,37,-99.99,,,-99.99,,2013-05-11 22:52:00,
2013-05-11 16:02:00,85.0,55.0,-100.00,SW,233,4.0,8.0,36,-99.99,,,-99.99,,2013-05-11 23:02:00,
2013-05-11 16:11:00,85.0,55.0,-100.00,SSW,208,3.0,7.0,36,-99.99,,,-99.99,,2013-05-11 23:11:00,
2013-05-11 16:22:00,86.0,55.0,-100.00,WSW,248,3.0,9.0,35,-99.99,,,-99.99,,2013-05-11 23:22:00,
2013-05-11 16:31:00,87.0,55.0,-100.00,SW,232,2.0,6.0,34,-99.99,,,-99.99,,2013-05-11 23:31:00,
2013-05-11 16:42:00,87.0,54.0,-100.00,SW,215,3.0,8.0,33,-99.99,,,-99.99,,2013-05-11 23:42:00,
2013-05-11 16:52:00,87.0,54.0,-100.00,SSW,213,3.0,8.0,33,-99.99,,,-99.99,,2013-05-11 23:52:00,
2013-05-11 17:01:00,87.0,54.0,-100.00,SSW,213,3.0,8.0,33,-99.99,,,-99.99,,2013-05-12 00:01:00,
2013-05-11 17:11:00,88.0,55.0,-100.00,SW,235,4.0,7.0,33,-99.99,,,-99.99,,2013-05-12 00:11:00,
2013-05-11 17:21:00,87.0,55.0,-100.00,WSW,248,4.0,7.0,34,-99.99,,,-99.99,,2013-05-12 00:21:00,
2013-05-11 17:32:00,87.0,55.0,-100.00,SW,232,3.0,6.0,34,-99.99,,,-99.99,,2013-05-12 00:32:00,
2013-05-11 17:41:00,87.0,55.0,-100.00,SW,232,3.0,6.0,34,-99.99,,,-99.99,,2013-05-12 00:41:00,
2013-05-11 18:11:00,86.0,56.0,-100.00,WSW,244,4.0,9.0,36,-99.99,,,-99.99,,2013-05-12 01:11:00,
2013-05-11 18:21:00,86.0,57.0,-100.00,SW,218,4.0,7.0,37,-99.99,,,-99.99,,2013-05-12 01:21:00,
2013-05-11 18:31:00,85.0,57.0,-100.00,South,189,2.0,8.0,38,-99.99,,,-99.99,,2013-05-12 01:31:00,
2013-05-11 18:41:00,85.0,57.0,-100.00,SSW,197,2.0,7.0,39,-99.99,,,-99.99,,2013-05-12 01:41:00,
2013-05-11 18:52:00,83.0,57.0,-100.00,WSW,239,3.0,6.0,41,-99.99,,,-99.99,,2013-05-12 01:52:00,
2013-05-11 19:01:00,83.0,58.0,-100.00,SSW,205,2.0,5.0,42,-99.99,,,-99.99,,2013-05-12 02:01:00,
2013-05-11 19:11:00,82.0,57.0,-100.00,SW,216,2.0,5.0,43,-99.99,,,-99.99,,2013-05-12 02:11:00,
2013-05-11 19:22:00,81.0,58.0,-100.00,SW,219,2.0,6.0,45,-99.99,,,-99.99,,2013-05-12 02:22:00,
2013-05-11 19:31:00,81.0,58.0,-100.00,SW,227,2.0,5.0,46,-99.99,,,-99.99,,2013-05-12 02:31:00,
2013-05-11 19:41:00,80.0,58.0,-100.00,SSW,209,1.0,3.0,47,-99.99,,,-99.99,,2013-05-12 02:41:00,
2013-05-11 19:52:00,78.0,58.0,-100.00,South,174,1.0,4.0,51,-99.99,,,-99.99,,2013-05-12 02:52:00,
2013-05-11 20:01:00,76.0,58.0,-100.00,SSE,160,1.0,3.0,54,-99.99,,,-99.99,,2013-05-12 03:01:00,
2013-05-11 20:11:00,75.0,59.0,-100.00,South,174,0.0,2.0,57,-99.99,,,-99.99,,2013-05-12 03:11:00,
2013-05-11 20:21:00,73.0,58.0,-100.00,SSE,166,1.0,4.0,59,-99.99,,,-99.99,,2013-05-12 03:21:00,
2013-05-11 20:32:00,73.0,58.0,-100.00,SSE,166,1.0,4.0,59,-99.99,,,-99.99,,2013-05-12 03:32:00,
2013-05-11 20:42:00,70.0,58.0,-100.00,ESE,115,1.0,2.0,65,-99.99,,,-99.99,,2013-05-12 03:42:00,
2013-05-11 20:53:00,69.0,58.0,-100.00,SE,143,0.0,1.0,67,-99.99,,,-99.99,,2013-05-12 03:53:00,
2013-05-11 21:02:00,-999.0,-99.9,-100.00,ESE,108,1.0,3.0,69,-99.99,,,-99.99,,2013-05-12 04:02:00,
2013-05-11 21:12:00,67.0,58.0,-100.00,ESE,120,1.0,3.0,72,-99.99,,,-99.99,,2013-05-12 04:12:00,
2013-05-11 21:22:00,66.0,57.0,-100.00,SW,218,1.0,3.0,74,-99.99,,,-99.99,,2013-05-12 04:22:00,
2013-05-11 21:33:00,65.0,58.0,-100.00,WSW,253,1.0,2.0,77,-99.99,,,-99.99,,2013-05-12 04:33:00,
2013-05-11 21:43:00,65.0,58.0,-100.00,SE,126,0.0,1.0,77,-99.99,,,-99.99,,2013-05-12 04:43:00,
2013-05-11 21:52:00,65.0,58.0,-100.00,ESE,108,0.0,1.0,77,-99.99,,,-99.99,,2013-05-12 04:52:00,
2013-05-11 22:02:00,65.0,58.0,-100.00,ESE,108,0.0,1.0,77,-99.99,,,-99.99,,2013-05-12 05:02:00,
2013-05-11 22:11:00,65.0,58.0,-100.00,ESE,108,0.0,1.0,77,-99.99,,,-99.99,,2013-05-12 05:11:00,
2013-05-11 22:21:00,63.0,57.0,-100.00,SSW,198,1.0,3.0,80,-99.99,,,-99.99,,2013-05-12 05:21:00,
2013-05-11 22:31:00,62.0,57.0,-100.00,ESE,123,1.0,2.0,85,-99.99,,,-99.99,,2013-05-12 05:31:00,
2013-05-11 22:42:00,62.0,57.0,-100.00,ESE,123,1.0,2.0,85,-99.99,,,-99.99,,2013-05-12 05:42:00,
2013-05-11 22:51:00,61.0,58.0,-100.00,ESE,115,0.0,1.0,89,-99.99,,,-99.99,,2013-05-12 05:51:00,
2013-05-11 23:01:00,61.0,58.0,-100.00,SE,134,0.0,1.0,89,-99.99,,,-99.99,,2013-05-12 06:01:00,
2013-05-11 23:11:00,60.0,57.0,-100.00,SE,131,0.0,1.0,89,-99.99,,,-99.99,,2013-05-12 06:11:00,
2013-05-11 23:21:00,60.0,57.0,-100.00,ESE,103,0.0,1.0,90,-99.99,,,-99.99,,2013-05-12 06:21:00,
2013-05-11 23:31:00,60.0,57.0,-100.00,ESE,117,0.0,1.0,90,-99.99,,,-99.99,,2013-05-12 06:31:00,
2013-05-11 23:42:00,59.0,56.0,-100.00,ESE,117,0.0,1.0,90,-99.99,,,-99.99,,2013-05-12 06:42:00,
2013-05-11 23:51:00,59.0,56.0,-100.00,SE,129,0.0,1.0,90,-99.99,,,-99.99,,2013-05-12 06:51:00,